Location: Karaa?a�
(36.7158°N, 30.4165°E)
Time: 12:54:52
(UTC+00:00)

Meteor 1-11 - Visible Passes

Search period start: 06 August 2020 00:00
Search period end: 16 August 2020 00:00
Orbit: 842 x 886 km, 81.2° (Epoch: 05 August)

Date Brightness Start Highest point End Pass type
(mag) Time Alt. Az. Time Alt. Az. Time Alt. Az.
06 Aug 5.5 01:53:29 10° N 01:58:59 45° ENE 02:04:25 10° SSE visible
07 Aug 5.4 01:45:23 10° N 01:50:54 45° ENE 01:56:18 10° SSE visible
08 Aug 5.4 01:37:18 10° N 01:42:48 44° ENE 01:48:11 10° SSE visible
09 Aug 5.4 01:29:13 10° N 01:34:42 44° ENE 01:40:04 10° SSE visible
10 Aug 5.4 01:21:07 10° N 01:26:36 44° ENE 01:31:58 10° SSE visible
11 Aug 5.4 01:13:02 10° N 01:18:29 43° ENE 01:23:51 10° SSE visible
12 Aug 5.4 01:04:56 10° N 01:10:23 43° ENE 01:15:44 10° SSE visible
13 Aug 5.3 00:56:50 10° N 01:02:17 43° ENE 01:07:37 10° SSE visible
13 Aug 5.4 02:40:53 10° NW 02:45:05 21° W 02:49:15 10° SW visible
14 Aug 5.3 00:48:45 10° N 00:54:11 43° ENE 00:59:31 10° SSE visible
14 Aug 5.4 02:32:47 10° NW 02:37:00 22° W 02:41:10 10° SW visible
15 Aug 5.3 00:40:40 10° N 00:46:04 42° ENE 00:51:23 10° SSE visible
15 Aug 5.4 02:24:41 10° NW 02:28:53 22° W 02:33:04 10° SW visible
